Regional Weather Roundup
Issued by NWS Newport/Morehead, NC

Current Version | Previous Version | Graphics & Text | Print | Product List | Glossary Off
Versions: 1 2 3 4 5 6 7 8 9 10 11 12 13 14 15 16 17 18 19 20 21 22 23 24 25 26 27 28 29 30 31 32 33 34 35 36 37 38 39 40 41 42 43 44 45 46 47 48 49 50

000
ASUS42 KMHX 091713
RWRMHX
WEATHER ROUNDUP FOR EASTERN NORTH CAROLINA
NATIONAL WEATHER SERVICE NEWPORT/MOREHEAD CITY NC
1200 PM EST TUE FEB 09 2016

NOTE: "FAIR" INDICATES FEW OR NO CLOUDS BELOW 12,000 FEET
WITH NO SIGNIFICANT WEATHER AND/OR OBSTRUCTIONS TO VISIBILITY

NCZ015>017-031-032-045>047-102-103-091800-
NORTH COAST

CITY           SKY/WX    TMP DP  RH WIND       PRES   REMARKS
EDENTON        PTSUNNY   48  32  53 W10G16    29.63F
ELIZABETH CITY MOSUNNY   48  31  51 W15       29.61F
KITTY HAWK     SUNNY     47  34  61 W15G21    29.60F
MANTEO         SUNNY     46  33  59 NW9G18    29.62F

$$

NCZ045>047-081-094-103-104-091800-
CENTRAL COAST

CITY           SKY/WX    TMP DP  RH WIND       PRES   REMARKS
FRISCO         SUNNY     47  34  60 W9G23     29.65S
SWANQUARTER      N/A     46 N/A N/A W10G23    29.62S

$$

NCZ095-097-098-100-101-091800-
SOUTHERN COAST

CITY           SKY/WX    TMP DP  RH WIND       PRES   REMARKS
BEAUFORT       PTSUNNY   49  35  58 W15       29.68F
CEDAR ISLAND     N/A     48 N/A N/A W3G17     29.71S
JACKSONVILLE   MOSUNNY   47  31  53 W10       29.68F
PINEY ISLAND   CLOUDY   N/A N/A N/A W16G26    29.66F
WILMINGTON     SUNNY     47  27  45 W23       29.71F


$$

NCZ011>013-027>030-043-044-078>080-089-090>093-098-091800-
COASTAL PLAIN

CITY           SKY/WX    TMP DP  RH WIND       PRES   REMARKS
AHOSKIE        MOSUNNY   47  31  54 SW3       29.62F
CLINTON        MOSUNNY   44  32  63 SW10G20   29.70S
ELIZABETHTOWN  MOSUNNY   44  26  50 W17G23    29.72F
GOLDSBORO      PTSUNNY   45  39  81 SW15      29.64F
GREENVILLE     CLOUDY    45  32  61 W9G17     29.69F
HAVELOCK       PTSUNNY   48  32  53 W16G24    29.68F
KENANSVILLE    PTSUNNY   43  33  67 SW9       29.69F
KINSTON        MOSUNNY   46  34  61 SW13      29.67F
NEW BERN       CLOUDY    45  32  60 W9        29.68F
RICHLANDS      CLOUDY    45  32  61 SW10      29.69F
ROCKY MOUNT    CLOUDY    44  31  60 W12       29.65F
WASHINGTON     MOSUNNY   44  30  58 W9G17     29.65F
WHITEVILLE     MOSUNNY   44  24  43 SW10G18   29.72F

$$

AMZ130-135-150-152-154-156-158-170-250-252-270-ANZ085-086-088-633-658-670-091800-
MARINE OBSERVATIONS

STATION/POSITION TIME  TEMP    WIND        PRES    WAVE   SWELL
                       AIR SEA DIR/SP/G            HT/PER HT/PER
                 (UTC) (F)     (DEG/KT/KT) (MB)    (FT/S) (FT/S)
CHESAPEAKE LIGHT 1600   42     280/ 14/ 16 1002.8
64 E VA BEACH    1650   45 51  280/ 17/ 23 1000.9   10/15  10/15
DUCK             1600   43     270/ 13/ 17 1002.1
2 E DUCK         1611      45                N/A     7/15   7/15
OREGON INLET     1600   46 45  260/  8/ 12 1002.9
13E OREGON INLT  1700      47                N/A    11/14  10/14
HATTERAS CG      1600   44 52  260/ 19/ 23 1003.7
DIAMOND BUOY     1650   47 73  280/ 21/ 27 1004.0   12/15  11/15
CAPE LOOKOUT     NOT AVBL
BEAUFORT LAB     1600   46 47  250/  9/ 13 1004.5
30 SE NEW RVR IN 1608   46 61              1006.1
30 SE NEW RVR IN 1625      61                N/A     9/ 8   3/15
27 SE WRIGHTSVLE 1608   44 60  270/ 23/ 31 1005.3
5 SE WRIGHTSVLE  1608   44 51  260/ 17/ 21 1007.1
225 S CAPE HAT   1650   56 69  270/ 25/ 33   N/A    17/10  15/10
41 SE CHARLESTON 1650   47 65  260/ 25/ 33 1008.5    9/ 7   2/15

$$



USA.gov is the U.S. government's official web portal to all federal, state and local government web resources and services.